TimeCDT,TemperatureF,Dew PointF,Humidity,Sea Level PressureIn,VisibilityMPH,Wind Direction,Wind SpeedMPH,Gust SpeedMPH,PrecipitationIn,Events,Conditions,WindDirDegrees,DateUTC
12:15 AM,51.8,26.6,38,29.84,10.0,South,8.1,-,N/A,,Clear,180,2012-10-03 05:15:00
12:35 AM,53.6,26.6,35,29.84,10.0,South,8.1,-,N/A,,Clear,190,2012-10-03 05:35:00
12:55 AM,55.4,26.6,33,29.83,10.0,South,8.1,-,N/A,,Clear,190,2012-10-03 05:55:00
1:15 AM,53.6,26.6,35,29.83,10.0,South,8.1,-,N/A,,Clear,190,2012-10-03 06:15:00
1:35 AM,53.6,26.6,35,29.84,10.0,SSW,10.4,-,N/A,,Clear,200,2012-10-03 06:35:00
1:55 AM,53.6,26.6,35,29.84,10.0,SSW,10.4,-,N/A,,Clear,210,2012-10-03 06:55:00
2:15 AM,53.6,24.8,33,29.84,10.0,SSW,8.1,-,N/A,,Clear,200,2012-10-03 07:15:00
2:35 AM,53.6,24.8,33,29.83,10.0,South,9.2,-,N/A,,Clear,190,2012-10-03 07:35:00
2:55 AM,55.4,26.6,33,29.83,10.0,SSW,11.5,-,N/A,,Clear,200,2012-10-03 07:55:00
3:15 AM,55.4,26.6,33,29.83,10.0,SSW,11.5,-,N/A,,Clear,200,2012-10-03 08:15:00
3:35 AM,55.4,26.6,33,29.83,10.0,South,10.4,-,N/A,,Clear,190,2012-10-03 08:35:00
3:55 AM,55.4,26.6,33,29.83,10.0,SSW,9.2,-,N/A,,Clear,200,2012-10-03 08:55:00
4:15 AM,55.4,26.6,33,29.84,10.0,SSW,10.4,-,N/A,,Clear,210,2012-10-03 09:15:00
4:35 AM,55.4,26.6,33,29.84,10.0,SSW,10.4,17.3,N/A,,Clear,210,2012-10-03 09:35:00
4:55 AM,55.4,26.6,33,29.84,10.0,SSW,11.5,-,N/A,,Clear,200,2012-10-03 09:55:00
5:15 AM,53.6,26.6,35,29.84,10.0,SSW,11.5,-,N/A,,Clear,200,2012-10-03 10:15:00
5:55 AM,55.4,26.6,33,29.84,10.0,SSW,9.2,-,N/A,,Clear,210,2012-10-03 10:55:00
6:15 AM,53.6,26.6,35,29.83,10.0,SSW,10.4,-,N/A,,Clear,210,2012-10-03 11:15:00
6:35 AM,53.6,28.4,38,29.84,10.0,SSW,10.4,-,N/A,,Clear,210,2012-10-03 11:35:00
6:55 AM,53.6,28.4,38,29.84,10.0,SSW,11.5,-,N/A,,Clear,210,2012-10-03 11:55:00
7:15 AM,53.6,28.4,38,29.84,10.0,SSW,11.5,-,N/A,,Clear,210,2012-10-03 12:15:00
7:35 AM,53.6,28.4,38,29.84,10.0,SSW,10.4,-,N/A,,Clear,210,2012-10-03 12:35:00
7:55 AM,53.6,28.4,38,29.84,10.0,SSW,11.5,-,N/A,,Clear,200,2012-10-03 12:55:00
8:15 AM,53.6,28.4,38,29.85,10.0,South,5.8,-,N/A,,Clear,190,2012-10-03 13:15:00
8:35 AM,55.4,30.2,38,29.85,10.0,South,5.8,-,N/A,,Clear,170,2012-10-03 13:35:00
8:55 AM,57.2,30.2,36,29.85,10.0,South,9.2,-,N/A,,Clear,180,2012-10-03 13:55:00
9:15 AM,60.8,30.2,31,29.84,10.0,South,9.2,-,N/A,,Clear,190,2012-10-03 14:15:00
9:35 AM,62.6,30.2,30,29.84,10.0,South,8.1,16.1,N/A,,Clear,190,2012-10-03 14:35:00
9:55 AM,64.4,32.0,30,29.84,10.0,South,10.4,-,N/A,,Clear,190,2012-10-03 14:55:00
10:15 AM,68.0,32.0,26,29.83,10.0,South,10.4,-,N/A,,Clear,190,2012-10-03 15:15:00
10:35 AM,69.8,33.8,27,29.83,10.0,SSW,11.5,-,N/A,,Clear,200,2012-10-03 15:35:00
10:55 AM,71.6,33.8,25,29.83,10.0,SSW,16.1,20.7,N/A,,Clear,200,2012-10-03 15:55:00
11:15 AM,73.4,33.8,23,29.82,10.0,SSW,11.5,-,N/A,,Clear,200,2012-10-03 16:15:00
11:35 AM,73.4,33.8,23,29.81,10.0,SSW,13.8,-,N/A,,Clear,200,2012-10-03 16:35:00
11:55 AM,73.4,32.0,22,29.80,10.0,South,13.8,21.9,N/A,,Clear,170,2012-10-03 16:55:00
12:15 PM,75.2,33.8,22,29.80,10.0,SSE,16.1,-,N/A,,Clear,160,2012-10-03 17:15:00
12:55 PM,75.2,32.0,21,29.79,10.0,South,18.4,21.9,N/A,,Clear,170,2012-10-03 17:55:00
1:15 PM,77.0,30.2,18,29.78,10.0,SSE,17.3,24.2,N/A,,Clear,160,2012-10-03 18:15:00
1:35 PM,77.0,30.2,18,29.77,10.0,SSE,19.6,23.0,N/A,,Clear,150,2012-10-03 18:35:00
1:55 PM,77.0,28.4,17,29.76,10.0,South,16.1,23.0,N/A,,Clear,180,2012-10-03 18:55:00
2:15 PM,75.2,28.4,18,29.76,10.0,SSE,16.1,26.5,N/A,,Clear,160,2012-10-03 19:15:00
2:35 PM,78.8,28.4,16,29.76,10.0,South,17.3,24.2,N/A,,Clear,180,2012-10-03 19:35:00
2:55 PM,78.8,28.4,16,29.75,10.0,South,18.4,27.6,N/A,,Clear,180,2012-10-03 19:55:00
3:15 PM,78.8,30.2,17,29.75,10.0,SSE,19.6,24.2,N/A,,Clear,160,2012-10-03 20:15:00
3:35 PM,78.8,30.2,17,29.74,10.0,SSE,20.7,25.3,N/A,,Clear,150,2012-10-03 20:35:00
3:55 PM,78.8,28.4,16,29.74,10.0,SSE,19.6,-,N/A,,Clear,160,2012-10-03 20:55:00
4:15 PM,77.0,28.4,17,29.73,10.0,SSE,20.7,26.5,N/A,,Clear,150,2012-10-03 21:15:00
4:35 PM,78.8,30.2,17,29.73,10.0,SSE,19.6,26.5,N/A,,Clear,150,2012-10-03 21:35:00
4:55 PM,75.2,30.2,19,29.73,10.0,SSE,18.4,21.9,N/A,,Clear,160,2012-10-03 21:55:00
5:15 PM,75.2,30.2,19,29.74,10.0,SSE,15.0,-,N/A,,Clear,160,2012-10-03 22:15:00
5:55 PM,75.2,32.0,21,29.76,10.0,SSE,11.5,20.7,N/A,,Clear,150,2012-10-03 22:55:00
6:15 PM,75.2,32.0,21,29.76,10.0,SSE,10.4,-,N/A,,Clear,150,2012-10-03 23:15:00
6:35 PM,73.4,33.8,23,29.76,10.0,SE,13.8,-,N/A,,Clear,140,2012-10-03 23:35:00
6:55 PM,73.4,33.8,23,29.76,10.0,SE,10.4,-,N/A,,Clear,140,2012-10-03 23:55:00
7:15 PM,71.6,33.8,25,29.76,10.0,SE,12.7,-,N/A,,Clear,140,2012-10-04 00:15:00
7:35 PM,69.8,33.8,27,29.75,10.0,SE,12.7,-,N/A,,Clear,140,2012-10-04 00:35:00
7:55 PM,69.8,32.0,25,29.75,10.0,SE,12.7,-,N/A,,Clear,130,2012-10-04 00:55:00
8:15 PM,68.0,32.0,26,29.75,10.0,SE,11.5,-,N/A,,Clear,130,2012-10-04 01:15:00
8:35 PM,66.2,32.0,28,29.76,10.0,SE,10.4,-,N/A,,Partly Cloudy,140,2012-10-04 01:35:00
8:55 PM,64.4,33.8,32,29.75,10.0,SSE,10.4,-,N/A,,Partly Cloudy,150,2012-10-04 01:55:00
9:35 PM,62.6,33.8,34,29.75,10.0,SSE,11.5,-,N/A,,Clear,150,2012-10-04 02:35:00
9:55 PM,62.6,33.8,34,29.74,10.0,SSE,12.7,-,N/A,,Clear,150,2012-10-04 02:55:00
10:15 PM,64.4,33.8,32,29.73,10.0,SE,12.7,-,N/A,,Clear,140,2012-10-04 03:15:00
10:35 PM,64.4,33.8,32,29.73,10.0,SSE,11.5,-,N/A,,Clear,150,2012-10-04 03:35:00
10:55 PM,66.2,33.8,30,29.73,10.0,SSE,15.0,-,N/A,,Clear,160,2012-10-04 03:55:00
11:15 PM,64.4,33.8,32,29.72,10.0,South,17.3,-,N/A,,Clear,180,2012-10-04 04:15:00
11:35 PM,57.2,35.6,44,29.74,7.0,WSW,20.7,28.8,N/A,,Clear,240,2012-10-04 04:35:00
11:55 PM,53.6,35.6,51,29.75,10.0,SW,17.3,28.8,N/A,,Clear,230,2012-10-04 04:55:00